Flag for Germany Weather past 2 weeks in Norden, Lower Saxony, Germany

Now
59 °F

Overcast.


Feels Like: 57 °F
Forecast: 55 / 61 °F
Wind: 13 mph from Northwest

Location: Norderney

Current Time: Jul 30, 2015 at 6:43:19 PM

Latest Report: Jul 30, 2015 at 6:00 PM


Visibility: 9 mi

Pressure: 29.95 "Hg

Humidity: 74%

Dew point: 51 °F

Location of NordenLocation

Historic Weather in Norden — Graph

°F

Norden temperature yesterday

Maximum temperature yesterday: 60 °F (at 2:00 AM)
Minimum temperature yesterday: 55 °F (at 10:00 AM)
Average temperature yesterday: 58 °F

Past Weeks' High & Low Weather Summary

 TemperatureHumidityPressure
High74 °F (Jul 17, 12:00 PM)98% (Jul 25, 1:00 AM)30.14 "Hg (Jul 25, 1:00 AM)
Low55 °F (Jul 27, 4:00 AM)59% (Jul 18, 10:00 PM)29.38 "Hg (Jul 25, 12:00 PM)
Average62 °F79%29.81 "Hg
* Reported Jul 15 5:00 PM — Jul 30 5:00 PM, Norden, Weather by CustomWeather, © 2015

Note: Actual official high and low records may vary slightly from our data, if they occured in-between our weather recording intervals... More about our weather records

Advertising

Norden weather history for previous 24 hours

 ConditionsComfort  
Time TempWeatherWind HumidityBarometerVisibility
5:00 PM
Thu, Jul 30
59 °FOvercast.14 mph75%29.93 "Hg10 mi
4:00 PM59 °FOvercast.15 mph75%29.92 "Hg28 mi
3:00 PM59 °FOvercast.14 mph73%29.90 "Hg6 mi
2:00 PM60 °FPartly sunny.16 mph69%29.88 "Hg6 mi
1:00 PM59 °FOvercast.14 mph69%29.86 "Hg6 mi
12:00 PM58 °FOvercast.15 mph78%29.85 "Hg4 mi
11:00 AM58 °FOvercast.16 mph74%29.83 "Hg4 mi
10:00 AM57 °FPartly sunny.15 mph78%29.81 "Hg4 mi
9:00 AM57 °FOvercast.14 mph80%29.80 "Hg6 mi
8:00 AM58 °FOvercast.15 mph77%29.78 "Hg7 mi
7:00 AM58 °FOvercast.17 mph73%29.77 "Hg16 mi
5:00 AM59 °FPassing clouds.18 mph71%29.74 "Hg11 mi
4:00 AM58 °FOvercast.18 mph79%29.72 "Hg9 mi
3:00 AM57 °FLight rain. Overcast.17 mph87%29.72 "Hg2 mi
2:00 AM59 °FOvercast.16 mph79%29.70 "Hg6 mi
1:00 AM60 °FOvercast.16 mph76%29.70 "Hg6 mi
12:00 AM60 °FOvercast.17 mph74%29.68 "Hg7 mi
11:00 PM
Wed, Jul 29
59 °FOvercast.18 mph75%29.67 "Hg7 mi
10:00 PM59 °FOvercast.16 mph80%29.65 "Hg6 mi
9:00 PM60 °FOvercast.18 mph76%29.62 "Hg7 mi
8:00 PM57 °FLight rain. Overcast.20 mph89%29.61 "Hg2 mi
7:00 PM57 °FLight rain. Overcast.15 mph88%29.59 "Hg3 mi
6:00 PM57 °FLight rain. Overcast.15 mph85%29.58 "Hg5 mi
Weather by CustomWeather, © 2015

See weather overviewHow to use our weather pages